Simultaneous Nadir Overpasses (SNOs) Predictions

Prediction of SNOs between GOES-15 and TERRA Satellite Orbit:

Table of predicted SNOs for the next 14.0 days since TLE Epoch: 5/29/2021
Index Date Time (GOES-15) GOES-15 Lat,Lon TERRA Lat,Lon Distance(km) Time Diff (sec)
1 05/30/2021 07:03:46 0.07,-128.42 0.03,-128.58 19.05 80
2 06/01/2021 06:48:52 0.07,-128.44 0.65,-125.62 319.53 80
3 06/01/2021 19:10:07 -0.08,-128.45 0.43,-130.78 265.60 80
4 06/03/2021 19:00:33 -0.08,-128.47 -0.19,-127.82 73.35 80
5 06/05/2021 18:48:19 -0.08,-128.49 -0.82,-124.86 412.11 80
6 06/06/2021 07:09:43 0.08,-128.50 -0.26,-130.06 177.60 80
7 06/08/2021 06:54:49 0.08,-128.51 0.37,-127.10 160.29 80
8 06/08/2021 19:16:03 -0.08,-128.50 0.71,-132.26 426.79 80
9 06/10/2021 06:42:35 0.08,-128.52 1.01,-124.14 497.50 80
10 06/10/2021 19:03:49 -0.08,-128.51 0.07,-129.30 89.52 80
